[[{"header":{"parameterUnit":"m.s-1","parameterCategory":1,"la1":30.2991,"la2":30.254,"lo1":-89.0895,"lo2":-89.0444,"dy":0.0017,"dx":0.0017,"nx":28,"ny":28,"refTime":"2025-06-14T21:00:00:Z","depth":0,"parameterNumber":2,"parameterNumberName":"U-component_of_WINDS"},"data":[0,0,0,0,0,0,0,0,0,0,0,0,0,0,0,0,0,0,0,0,0,0,0,0,0,0,0,0,0,0,0,0,0,0,0,0,0,0,0,0,0,0,0,0,0,0,0,0,0,0,0,0,0,0,0,0,0,0,-0.6001,-0.5998,0,-0.5692,-0.5689,-0.5685,-0.5515,-0.5515,-0.5514,-0.5514,-0.5193,-0.5185,-0.5177,0,0,0,0,0,0,0,0,0,0,0,0,0,-0.6442,-0.6435,-0.6002,-0.5998,-0.5994,-0.5693,-0.5688,-0.5684,-0.5515,-0.5515,-0.5514,-0.5514,-0.5195,-0.5186,-0.5176,0,0,0,0,0,0,0,0,0,0,0,0,0,-0.6204,-0.6433,-0.6002,-0.5874,-0.5859,-0.5693,-0.5688,-0.5683,-0.5516,-0.5515,-0.5514,-0.5514,-0.5198,-0.5187,-0.5175,-0.5112,0,0,-0.5137,-0.5132,0,0,0,0,0,0,0,0,-0.6218,-0.6188,-0.5896,-0.5882,-0.5866,-0.5642,-0.5726,-0.5491,-0.5516,-0.5646,-0.5514,-0.5513,-0.5342,-0.5318,-0.5261,-0.5097,-0.5083,-0.5136,-0.5129,-0.5123,-0.512,0,0,0,0,0,0,0,-0.6234,-0.62,-0.5879,-0.5892,-0.5874,-0.583,-0.5795,-0.568,-0.5501,-0.5634,-0.5621,-0.5587,-0.5334,-0.5274,-0.5253,-0.5078,-0.5136,-0.5126,-0.5118,-0.5113,-0.4845,-0.4845,0,0,0,0,0,0,-0.6272,-0.6215,-0.5889,-0.587,-0.6044,-0.5823,-0.5784,-0.5714,-0.5502,-0.5469,-0.5588,-0.5581,-0.5295,-0.5267,-0.5241,-0.5151,-0.5123,-0.5112,-0.5105,-0.4844,-0.4845,-0.4845,0,0,0,0,0,0,-0.6282,-0.6245,-0.5901,-0.6039,-0.5992,-0.5816,-0.5739,-0.5708,-0.5648,-0.5467,-0.5434,-0.556,-0.5293,-0.5258,-0.5145,-0.5138,-0.5106,-0.5095,-0.4844,-0.4845,-0.4845,-0.4975,0,0,0,0,0,0,-0.6296,-0.6249,-0.6225,-0.604,-0.5985,-0.5813,-0.5738,-0.5703,-0.5628,-0.5615,-0.5432,-0.5401,-0.529,-0.5164,-0.5133,-0.5121,-0.5086,-0.4844,-0.4844,-0.4845,-0.497,-0.4979,-0.4987,0,0,0,0,0,-0.6312,-0.6273,-0.6225,-0.6186,-0.5951,-0.5813,-0.5781,-0.5656,-0.5628,-0.5601,-0.5485,-0.5407,-0.5145,-0.5154,-0.5117,-0.5101,-0.4844,-0.4844,-0.4845,-0.4966,-0.4978,-0.4987,0,0,0,0,0,0,-0.6461,-0.6247,-0.619,-0.6091,-0.5972,-0.5785,-0.5746,-0.5672,-0.5557,-0.555,-0.5397,-0.5357,-0.5259,-0.5168,-0.5183,-0.5029,-0.4986,-0.4979,-0.5091,-0.51,-0.5108,-0.5131,-0.5076,0,0,0,0,0,-0.6483,-0.639,-0.6207,-0.6136,-0.608,-0.5924,-0.5859,-0.5773,-0.5642,-0.5591,-0.5466,-0.5341,-0.523,-0.516,-0.5049,-0.4957,-0.4913,-0.4928,-0.4937,-0.4944,-0.494,-0.4882,-0.4886,-0.4846,-0.4846,-0.4846,0,0,-0.6526,-0.6397,-0.6347,-0.6163,-0.606,-0.5966,-0.5883,-0.5786,-0.5714,-0.5575,-0.5461,-0.5366,-0.5216,-0.5114,-0.5062,-0.5036,-0.4941,-0.4945,-0.4953,-0.4943,-0.4883,-0.4887,-0.4891,-0.4847,-0.4847,-0.4847,0,0,-0.6555,-0.645,-0.6378,-0.6278,-0.6124,-0.602,-0.6004,-0.5828,-0.5759,-0.5643,-0.5537,-0.5448,-0.5261,-0.5158,-0.5082,-0.5073,-0.4996,-0.5041,-0.5084,-0.5031,-0.5034,-0.5036,-0.503,-0.5031,-0.5037,-0.5037,-0.5037,0,-0.6627,-0.6482,-0.6351,-0.626,-0.6182,-0.6054,-0.598,-0.5888,-0.5705,-0.5653,-0.5627,-0.5388,-0.5279,-0.515,-0.5148,-0.5091,-0.5065,-0.506,-0.5044,-0.5045,-0.5045,-0.5038,-0.5036,-0.5044,-0.5043,-0.5042,-0.5042,0,-0.6577,-0.6478,-0.6439,-0.6267,-0.6184,-0.6103,-0.5958,-0.5889,-0.5811,-0.571,-0.5592,-0.5456,-0.5314,-0.5277,-0.5199,-0.5136,-0.5124,-0.5074,-0.5027,-0.5057,-0.5048,-0.5044,-0.5053,-0.505,-0.5048,-0.5047,0,0,-0.6691,-0.6448,-0.6435,-0.6355,-0.6176,-0.6096,-0.6008,-0.587,-0.5814,-0.5692,-0.5613,-0.5458,-0.5409,-0.5323,-0.5232,-0.5185,-0.5184,-0.5138,-0.5133,-0.515,-0.5104,-0.5142,-0.5142,-0.5133,-0.5132,-0.5132,-0.5116,0,-0.6693,-0.653,-0.641,-0.6292,-0.6198,-0.6075,-0.5998,-0.5879,-0.5783,-0.5687,-0.558,-0.5472,-0.5417,-0.5364,-0.5312,-0.5196,-0.5173,-0.5195,-0.5056,-0.5052,-0.5095,-0.5137,-0.5177,-0.5169,-0.5112,-0.5111,-0.5111,0,-0.6673,-0.6557,-0.6431,-0.6261,-0.6216,-0.615,-0.6013,-0.5924,-0.5786,-0.5719,-0.5623,-0.553,-0.543,-0.5395,-0.5253,-0.5271,-0.5207,-0.5142,-0.5138,-0.5118,-0.5082,-0.5116,-0.5163,-0.5162,-0.5104,-0.5105,-0.5105,0,-0.6767,-0.6578,-0.6477,-0.6413,-0.6213,-0.6168,-0.6083,-0.5944,-0.5869,-0.5749,-0.5698,-0.5569,-0.5497,-0.5398,-0.5271,-0.5258,-0.5142,-0.5097,-0.5082,-0.5085,-0.5061,-0.5064,-0.5097,-0.5024,-0.5024,-0.5025,-0.5025,0,-0.678,-0.6707,-0.6516,-0.6455,-0.6368,-0.6231,-0.6149,-0.6052,-0.593,-0.5846,-0.5732,-0.5655,-0.5494,-0.5397,-0.5297,-0.5194,-0.5163,-0.5104,-0.5078,-0.5113,-0.5121,-0.5067,-0.5064,-0.5024,-0.5024,-0.5024,-0.5024,0,-0.6869,-0.6739,-0.662,-0.6441,-0.6394,-0.6338,-0.6184,-0.6118,-0.6016,-0.5911,-0.5878,-0.5717,-0.5597,-0.5462,-0.5296,-0.5229,-0.5132,-0.5096,-0.5179,-0.5164,-0.5155,-0.5157,-0.5153,-0.5145,-0.5082,-0.5083,-0.5084,0,-0.6886,-0.6826,-0.6641,-0.6577,-0.6494,-0.6393,-0.6315,-0.6177,-0.6101,-0.5939,-0.5893,-0.5764,-0.5654,-0.5468,-0.5335,-0.5208,-0.5165,-0.5173,-0.5145,-0.5182,-0.5163,-0.5167,-0.5159,-0.518,-0.5182,-0.5183,-0.5184,0,-0.6928,-0.6866,-0.676,-0.663,-0.6542,-0.6433,-0.6319,-0.6273,-0.6111,-0.6031,-0.5908,-0.5823,-0.5654,-0.5527,-0.5384,-0.5293,-0.5211,-0.5194,-0.5183,-0.5217,-0.5267,-0.5237,-0.5198,-0.5194,-0.5193,-0.5192,-0.5192,-0.5191,-0.6979,-0.692,-0.678,-0.6665,-0.6565,-0.6461,-0.639,-0.628,-0.6175,-0.6028,-0.5952,-0.5829,-0.5691,-0.549,-0.5402,-0.5303,-0.5276,-0.5261,-0.5256,-0.5254,-0.5263,-0.5285,-0.5276,-0.5276,-0.5275,-0.5275,-0.5274,0,-0.7014,-0.6918,-0.6813,-0.6658,-0.6567,-0.65,-0.637,-0.6298,-0.6192,-0.6071,-0.5965,-0.5822,-0.5698,-0.5557,-0.5423,-0.5371,-0.533,-0.534,-0.5342,-0.5322,-0.5296,-0.5317,-0.5376,-0.5376,-0.5376,-0.5376,-0.5376,-0.5376,-0.7021,-0.6917,-0.6839,-0.6684,-0.6588,-0.6467,-0.6399,-0.6302,-0.6205,-0.6051,-0.5948,-0.5857,-0.5726,-0.5583,-0.5466,-0.5427,-0.5382,-0.5404,-0.5354,-0.5332,-0.5324,-0.5316,-0.5335,-0.5396,-0.5396,-0.5387,-0.5387,-0.5387]},{"header":{"parameterUnit":"m.s-1","parameterCategory":1,"la1":30.2991,"la2":30.254,"lo1":-89.0895,"lo2":-89.0444,"dy":0.0017,"dx":0.0017,"nx":28,"ny":28,"refTime":"2025-06-14T21:00:00:Z","depth":0,"parameterNumber":3,"parameterNumberName":"V-component_of_WINDS"},"data":[0,0,0,0,0,0,0,0,0,0,0,0,0,0,0,0,0,0,0,0,0,0,0,0,0,0,0,0,0,0,0,0,0,0,0,0,0,0,0,0,0,0,0,0,0,0,0,0,0,0,0,0,0,0,0,0,0,0,4.4449,4.4448,0,4.4385,4.4384,4.4383,4.4311,4.431,4.4309,4.4308,4.4239,4.4238,4.4238,0,0,0,0,0,0,0,0,0,0,0,0,0,4.4505,4.4504,4.4449,4.4448,4.4447,4.4385,4.4384,4.4383,4.4311,4.431,4.4309,4.4307,4.424,4.4239,4.4238,0,0,0,0,0,0,0,0,0,0,0,0,0,4.4465,4.4504,4.4449,4.4404,4.4399,4.4385,4.4384,4.4383,4.4312,4.431,4.4308,4.4307,4.424,4.4239,4.4237,4.4262,0,0,4.4234,4.4233,0,0,0,0,0,0,0,0,4.4467,4.4463,4.4411,4.4407,4.4402,4.4354,4.4379,4.4342,4.4312,4.4345,4.4308,4.4306,4.4279,4.4274,4.4266,4.4258,4.4255,4.4233,4.4233,4.4232,4.4232,0,0,0,0,0,0,0,4.447,4.4465,4.4423,4.4411,4.4405,4.4386,4.4378,4.4371,4.4321,4.4342,4.4336,4.433,4.4276,4.4267,4.4263,4.4254,4.4233,4.4232,4.4232,4.4231,4.4263,4.4265,0,0,0,0,0,0,4.448,4.4468,4.4425,4.4421,4.4431,4.4386,4.4378,4.4371,4.4321,4.4312,4.4331,4.4327,4.427,4.4265,4.4261,4.4286,4.4232,4.4231,4.423,4.4262,4.4264,4.4265,0,0,0,0,0,0,4.4481,4.4477,4.4428,4.4443,4.4436,4.4387,4.438,4.4371,4.4362,4.4313,4.4304,4.4332,4.4268,4.4262,4.4262,4.4283,4.423,4.4229,4.426,4.4262,4.4265,4.4337,0,0,0,0,0,0,4.4483,4.4478,4.4488,4.4444,4.4435,4.4432,4.4381,4.4371,4.436,4.4354,4.4311,4.4303,4.4267,4.4264,4.4261,4.428,4.4228,4.4258,4.4261,4.4264,4.4333,4.4342,4.4349,0,0,0,0,0,4.4486,4.451,4.4488,4.4484,4.4446,4.4433,4.4428,4.4387,4.4362,4.4371,4.434,4.4304,4.4281,4.4265,4.426,4.4279,4.4256,4.426,4.4264,4.4329,4.434,4.4349,0,0,0,0,0,0,4.4556,4.4503,4.4479,4.449,4.4467,4.4421,4.4431,4.44,4.4382,4.4377,4.4325,4.4316,4.4322,4.43,4.4284,4.43,4.4263,4.4266,4.4315,4.4325,4.4333,4.4339,4.4227,0,0,0,0,0,4.4573,4.4568,4.4522,4.4536,4.4525,4.4481,4.4473,4.4444,4.4417,4.4407,4.4375,4.435,4.4336,4.4329,4.4314,4.4328,4.4318,4.4339,4.4348,4.4355,4.4358,4.4364,4.4373,4.4277,4.4277,4.4277,0,0,4.4608,4.4578,4.4578,4.4549,4.4528,4.4523,4.4473,4.4469,4.4465,4.4406,4.4404,4.438,4.4348,4.4356,4.4357,4.4337,4.4382,4.4359,4.4365,4.4365,4.4369,4.4378,4.4386,4.428,4.4279,4.4279,0,0,4.4669,4.4646,4.4656,4.4635,4.4604,4.4574,4.4576,4.4535,4.4517,4.4515,4.447,4.4463,4.4441,4.4421,4.4407,4.446,4.4427,4.4456,4.45,4.4507,4.4515,4.4521,4.454,4.4548,4.4459,4.446,4.446,0,4.4716,4.4708,4.4664,4.4664,4.4653,4.4599,4.4608,4.459,4.4555,4.4547,4.4526,4.4498,4.4472,4.4474,4.4487,4.4478,4.4478,4.4462,4.4517,4.4523,4.4528,4.4547,4.4554,4.4464,4.4463,4.4463,4.4462,0,4.4768,4.4763,4.4774,4.4743,4.4732,4.4737,4.4692,4.4686,4.4657,4.4629,4.4627,4.4595,4.4573,4.457,4.4541,4.4568,4.4557,4.4527,4.4489,4.4542,4.4558,4.4565,4.4469,4.4468,4.4467,4.4466,0,0,4.4873,4.4817,4.4822,4.4808,4.4769,4.4763,4.4764,4.4744,4.474,4.4717,4.4717,4.4699,4.4672,4.4656,4.4624,4.463,4.4674,4.4599,4.4597,4.4615,4.4702,4.4726,4.4735,4.4651,4.4652,4.4653,4.4705,0,4.4928,4.4929,4.4889,4.4901,4.4896,4.4844,4.4845,4.4821,4.4794,4.4785,4.4754,4.4743,4.4707,4.4697,4.47,4.4669,4.4691,4.4664,4.465,4.465,4.4662,4.4743,4.4768,4.4819,4.4711,4.4712,4.4713,0,4.4993,4.4976,4.4987,4.4948,4.4944,4.4946,4.4924,4.4915,4.4886,4.4866,4.4849,4.4813,4.481,4.4773,4.4769,4.4751,4.4742,4.4726,4.4727,4.4725,4.4686,4.4745,4.4834,4.4843,4.4722,4.4721,4.472,0,4.5071,4.5049,4.5053,4.5042,4.4996,4.4998,4.4979,4.4948,4.4938,4.4918,4.4911,4.489,4.4879,4.4863,4.4822,4.4799,4.4822,4.4782,4.4805,4.4806,4.4814,4.4814,4.4905,4.4806,4.4806,4.4806,4.4805,0,4.5138,4.5147,4.5088,4.5091,4.5099,4.5052,4.5061,4.5037,4.5009,4.5006,4.4958,4.4956,4.49,4.4891,4.4858,4.4859,4.4854,4.4838,4.4829,4.4843,4.4846,4.4838,4.4834,4.4807,4.4807,4.4807,4.4806,0,4.5226,4.5187,4.5189,4.5144,4.5133,4.5142,4.5104,4.5104,4.5074,4.5069,4.5066,4.5018,4.5005,4.4961,4.4936,4.4914,4.4926,4.4908,4.4937,4.4931,4.4958,4.4957,4.5048,4.5058,4.4952,4.4953,4.4954,0,4.5273,4.5279,4.5236,4.5231,4.5214,4.5206,4.5195,4.5148,4.514,4.5106,4.5111,4.5093,4.5078,4.5058,4.502,4.5001,4.4983,4.5017,4.498,4.4994,4.4986,4.4987,4.4987,4.5025,4.5027,4.5028,4.5029,0,4.536,4.534,4.5328,4.5309,4.5299,4.5281,4.5261,4.5259,4.5206,4.5198,4.5185,4.5172,4.5147,4.5131,4.5105,4.5083,4.5048,4.504,4.5045,4.506,4.5077,4.507,4.496,4.5039,4.5038,4.5037,4.5037,4.5036,4.5429,4.5433,4.5403,4.5391,4.5371,4.5353,4.5352,4.5322,4.531,4.5287,4.5259,4.5249,4.5218,4.518,4.5161,4.5151,4.5132,4.5138,4.514,4.5143,4.515,4.5077,4.5146,4.5145,4.5145,4.5145,4.5144,0,4.5515,4.5494,4.5483,4.5457,4.5447,4.5415,4.539,4.5384,4.5376,4.5351,4.5337,4.5321,4.5304,4.5265,4.5245,4.5244,4.5228,4.5241,4.5241,4.5237,4.5168,4.5167,4.5255,4.5255,4.5255,4.5255,4.5255,4.5255,4.5559,4.5564,4.554,4.5534,4.5511,4.5502,4.5491,4.5474,4.5454,4.5439,4.5425,4.54,4.5369,4.5346,4.5329,4.5317,4.5313,4.5332,4.5316,4.5252,4.5242,4.5232,4.5231,4.5331,4.5331,4.5386,4.5386,4.5387]}]]